This is the latest recevied weather packets stored in our database for station/object KQ4KX. If no packets are shown the sender has not sent any weather packets the latest 10 day(s).
| Time | Temp. | Humidity | Pressure | Rain* | Wind** | Luminosity | Snow |
|---|---|---|---|---|---|---|---|
| 1788444964 | 28.89° C | 86% | 1015.5 hPa | 0 mm | - | - | - |
| 1788444493 | 28.89° C | 89% | 1015.4 hPa | 0 mm | - | - | - |
| 1788444305 | 28.89° C | 89% | 1015.4 hPa | 0 mm | - | - | - |
| 1788443974 | 28.33° C | 90% | 1015.4 hPa | 0 mm | - | - | - |
| 1788443674 | 28.33° C | 89% | 1015.4 hPa | 0 mm | - | - | - |
| 1788443074 | 28.33° C | 94% | 1015.4 hPa | 0 mm | - | - | - |
| 1788442774 | 27.78° C | 94% | 1015.3 hPa | 0 mm | - | - | - |
| 1788441814 | 27.78° C | 96% | 1015.2 hPa | 0 mm | - | - | - |
| 1788441484 | 27.78° C | 94% | 1015.2 hPa | 0 mm | - | - | - |
| 1788441155 | 27.78° C | 97% | 1015.3 hPa | 0 mm | - | - | - |
| 1788440854 | 27.22° C | 96% | 1015.3 hPa | 0 mm | - | - | - |
| 1788440554 | 27.22° C | 97% | 1015.3 hPa | 0 mm | - | - | - |
| 1788440386 | 27.22° C | 98% | 1015.2 hPa | 0 mm | - | - | - |
| 1788440225 | 27.22° C | 98% | 1015.2 hPa | 0 mm | - | - | - |
| 1788439624 | 26.67° C | 97% | 1015.2 hPa | 0 mm | - | - | - |
| 1788439123 | 26.67° C | 98% | 1015.2 hPa | 0 mm | - | - | - |
| 1788438994 | 26.67° C | 98% | 1015.2 hPa | 0 mm | - | - | - |
| 1788438665 | 26.67° C | 98% | 1015.1 hPa | 0 mm | - | - | - |
| 1788438007 | 26.67° C | 99% | 1015.1 hPa | 0 mm | - | - | - |
| 1788437234 | 26.11° C | 99% | 1014.8 hPa | 0 mm | - | - | - |
| 1788437105 | 26.11° C | 99% | 1014.8 hPa | 0 mm | - | - | - |
| 1788436490 | 26.11° C | 99% | 1014.8 hPa | 0 mm | - | - | - |
| 1788436175 | 26.11° C | 99% | 1014.7 hPa | 0 mm | - | - | - |
| 1788435874 | 26.11° C | 100% | 1014.5 hPa | 0 mm | - | - | - |
| 1788435545 | 26.11° C | 100% | 1014.4 hPa | 0 mm | - | - | - |
* Rain latest hour (hover to see other rain measurements)
** Current wind speed in m/s (hover to see current wind gust speed)